[[{"header":{"parameterUnit":"m.s-1","parameterCategory":2,"la1":30.2991,"la2":30.254,"lo1":-89.0895,"lo2":-89.0444,"dy":0.0017,"dx":0.0017,"nx":28,"ny":28,"refTime":"2025-09-06T03:00:00:Z","depth":"0","parameterNumber":2,"parameterNumberName":"U-component_of_CURRENTS"},"data":[0,0,0,0,0,0,0,0,0,0,0,0,0,0,0,0,0,0,0,0,0,0,0,0,0,0,0,0,0,0,0,0,0,0,0,0,0,0,0,0,0,0,0,0,0,0,0,0,0,0,0,0,0,0,0,0,0,0,0.1675,0.1676,0,0.1739,0.1739,0.174,0.174,0.1739,0.1739,0.1738,0.1761,0.1762,0.1763,0,0,0,0,0,0,0,0,0,0,0,0,0,0.1512,0.1515,0.1675,0.1676,0.1677,0.1739,0.1739,0.174,0.174,0.1739,0.1738,0.1738,0.1761,0.1762,0.1763,0,0,0,0,0,0,0,0,0,0,0,0,0,0.1577,0.1516,0.1675,0.1687,0.1689,0.1738,0.1739,0.174,0.174,0.1739,0.1738,0.1738,0.176,0.1762,0.1764,0.179,0,0,0.1769,0.1769,0,0,0,0,0,0,0,0,0.1573,0.1582,0.1684,0.1686,0.1688,0.1733,0.169,0.1756,0.174,0.1717,0.1738,0.1737,0.1751,0.1753,0.1763,0.1791,0.1792,0.1769,0.177,0.1771,0.1771,0,0,0,0,0,0,0,0.1569,0.1579,0.1697,0.1685,0.1688,0.1675,0.1683,0.1702,0.1734,0.1719,0.172,0.1732,0.1751,0.1761,0.1763,0.1792,0.1769,0.177,0.1771,0.1772,0.1824,0.1824,0,0,0,0,0,0,0.1571,0.1576,0.1695,0.1699,0.1631,0.1679,0.1688,0.1717,0.1735,0.1738,0.1733,0.1732,0.1759,0.1761,0.1764,0.1788,0.1771,0.1772,0.1773,0.1823,0.1824,0.1824,0,0,0,0,0,0,0.1567,0.1582,0.1692,0.164,0.1653,0.1683,0.1715,0.1719,0.1729,0.1747,0.1748,0.1739,0.1758,0.1762,0.1779,0.1789,0.1773,0.1774,0.1823,0.1823,0.1824,0.1841,0,0,0,0,0,0,0.1563,0.158,0.1601,0.1641,0.1657,0.1726,0.1716,0.1721,0.1739,0.1739,0.1753,0.1754,0.1758,0.1776,0.178,0.1791,0.1776,0.1822,0.1823,0.1824,0.184,0.1842,0.1844,0,0,0,0,0,0.1557,0.1597,0.1602,0.1617,0.1686,0.1727,0.1733,0.1748,0.174,0.1752,0.1755,0.1754,0.1783,0.1778,0.1783,0.1794,0.1822,0.1823,0.1824,0.1839,0.1842,0.1844,0,0,0,0,0,0,0.155,0.1603,0.1609,0.1666,0.1693,0.1728,0.1748,0.1751,0.1764,0.1762,0.1764,0.1767,0.1786,0.1788,0.1782,0.181,0.1801,0.1803,0.1811,0.1813,0.1815,0.1834,0.1777,0,0,0,0,0,0.1557,0.1594,0.1635,0.168,0.1694,0.1717,0.1735,0.1745,0.1764,0.1769,0.1776,0.1783,0.1795,0.1801,0.1815,0.1833,0.1925,0.1841,0.1843,0.1845,0.1863,0.1975,0.199,0.1827,0.1827,0.1827,0,0,0.157,0.1602,0.1626,0.1679,0.1701,0.1729,0.1725,0.1759,0.1776,0.177,0.1792,0.1795,0.1803,0.1822,0.183,0.1823,0.1957,0.1846,0.1847,0.1865,0.1978,0.1994,0.2009,0.1827,0.1827,0.1827,0,0,0.1608,0.1639,0.1676,0.1696,0.1732,0.1746,0.1754,0.1785,0.179,0.1814,0.181,0.1816,0.1839,0.1842,0.1847,0.1868,0.1966,0.1872,0.1896,0.2005,0.2021,0.2035,0.2257,0.2291,0.1869,0.1869,0.1869,0,0.1622,0.1676,0.1692,0.1724,0.1747,0.1751,0.1786,0.1795,0.1825,0.184,0.1822,0.1863,0.1848,0.1884,0.1878,0.1873,0.2,0.1886,0.2012,0.2027,0.2041,0.2265,0.2302,0.187,0.187,0.187,0.187,0,0.1681,0.1717,0.174,0.1779,0.18,0.1835,0.1847,0.1863,0.1863,0.1876,0.1911,0.1901,0.1933,0.1914,0.1897,0.198,0.2067,0.2007,0.2012,0.2059,0.2293,0.2331,0.1872,0.1871,0.1871,0.1871,0,0,0.1741,0.1775,0.1785,0.1806,0.1833,0.1864,0.1884,0.1921,0.1966,0.1956,0.2033,0.199,0.1999,0.2004,0.1991,0.205,0.2257,0.2073,0.2078,0.2309,0.2622,0.2664,0.2712,0.2233,0.2237,0.2241,0.2777,0,0.1787,0.1848,0.1852,0.1906,0.194,0.194,0.1972,0.1997,0.2023,0.2097,0.2076,0.2145,0.2031,0.208,0.2109,0.2235,0.2347,0.2125,0.2528,0.2543,0.2583,0.275,0.2659,0.3124,0.2815,0.2821,0.2826,0,0.1851,0.1882,0.1939,0.1982,0.1999,0.2027,0.2097,0.2131,0.2203,0.2234,0.227,0.2296,0.2386,0.2282,0.252,0.2402,0.2517,0.2595,0.2616,0.267,0.2652,0.3007,0.3206,0.3062,0.2886,0.2881,0.2877,0,0.1899,0.1949,0.1995,0.2009,0.2054,0.2083,0.2117,0.2176,0.2246,0.2361,0.2461,0.2527,0.2649,0.2742,0.2858,0.2742,0.3173,0.3037,0.3201,0.3212,0.3218,0.3218,0.3324,0.3227,0.3226,0.3225,0.3223,0,0.1958,0.1999,0.2021,0.2051,0.2135,0.214,0.225,0.2292,0.2404,0.2522,0.2552,0.2691,0.2767,0.298,0.3026,0.3289,0.3328,0.3287,0.3351,0.3229,0.3223,0.3158,0.3053,0.3245,0.324,0.3236,0.3233,0,0.2017,0.2024,0.209,0.2136,0.2162,0.2231,0.2344,0.2418,0.2525,0.2704,0.2769,0.2938,0.3205,0.3324,0.3579,0.3573,0.3689,0.3837,0.3748,0.3786,0.3712,0.3612,0.3743,0.364,0.414,0.4144,0.4147,0,0.2057,0.2093,0.2164,0.2206,0.2232,0.2327,0.2388,0.2481,0.2569,0.2838,0.2936,0.3253,0.3407,0.3851,0.3952,0.4186,0.3923,0.4229,0.3909,0.3771,0.3709,0.3483,0.3365,0.3997,0.3999,0.4001,0.4002,0,0.2139,0.2157,0.2198,0.2289,0.2352,0.2432,0.2526,0.2612,0.2739,0.2894,0.3117,0.3276,0.3699,0.3883,0.4205,0.4285,0.4006,0.4268,0.4128,0.3632,0.3396,0.3304,0.3658,0.4017,0.4016,0.4014,0.4014,0.4013,0.2203,0.2243,0.2286,0.2365,0.2427,0.2482,0.2525,0.262,0.2757,0.2928,0.3147,0.3348,0.37,0.4105,0.4205,0.429,0.4147,0.4137,0.4067,0.3881,0.3617,0.4055,0.443,0.4431,0.4432,0.4432,0.4433,0,0.2265,0.2283,0.2356,0.2412,0.2438,0.2481,0.2564,0.2572,0.266,0.2882,0.3041,0.3377,0.3643,0.3903,0.4137,0.4058,0.3854,0.3963,0.3576,0.3491,0.3934,0.3749,0.3985,0.3985,0.3985,0.3985,0.3985,0.3986,0.2296,0.2342,0.2354,0.2386,0.2408,0.2403,0.2415,0.2441,0.2555,0.2715,0.2882,0.3085,0.3446,0.3808,0.3855,0.3793,0.3438,0.3394,0.3308,0.3545,0.355,0.3555,0.3353,0.3502,0.3501,0.2722,0.2716,0.2712]},{"header":{"parameterUnit":"m.s-1","parameterCategory":2,"la1":30.2991,"la2":30.254,"lo1":-89.0895,"lo2":-89.0444,"dy":0.0017,"dx":0.0017,"nx":28,"ny":28,"refTime":"2025-09-06T03:00:00:Z","depth":"0","parameterNumber":3,"parameterNumberName":"V-component_of_CURRENTS"},"data":[0,0,0,0,0,0,0,0,0,0,0,0,0,0,0,0,0,0,0,0,0,0,0,0,0,0,0,0,0,0,0,0,0,0,0,0,0,0,0,0,0,0,0,0,0,0,0,0,0,0,0,0,0,0,0,0,0,0,0.0127,0.0127,0,0.0101,0.0101,0.0101,0.0088,0.0088,0.0088,0.0088,0.0087,0.0087,0.0087,0,0,0,0,0,0,0,0,0,0,0,0,0,0.013,0.0131,0.0127,0.0127,0.0126,0.0101,0.0101,0.0101,0.0088,0.0088,0.0088,0.0088,0.0087,0.0087,0.0087,0,0,0,0,0,0,0,0,0,0,0,0,0,0.012,0.0131,0.0127,0.0116,0.0115,0.0101,0.0101,0.0101,0.0088,0.0088,0.0088,0.0087,0.0087,0.0087,0.0087,0.009,0,0,0.0088,0.0088,0,0,0,0,0,0,0,0,0.0121,0.012,0.0118,0.0117,0.0115,0.0097,0.0102,0.0098,0.0088,0.0099,0.0088,0.0087,0.0092,0.0092,0.0088,0.009,0.009,0.0088,0.0088,0.0088,0.0088,0,0,0,0,0,0,0,0.0121,0.0121,0.0118,0.0118,0.0116,0.0101,0.01,0.0101,0.0098,0.0098,0.0097,0.0093,0.0092,0.0088,0.0088,0.009,0.0088,0.0088,0.0088,0.0088,0.0038,0.0037,0,0,0,0,0,0,0.0125,0.0122,0.0118,0.0117,0.0117,0.0101,0.01,0.0104,0.0097,0.0096,0.0093,0.0092,0.0088,0.0088,0.0088,0.006,0.0088,0.0088,0.0088,0.004,0.0038,0.0036,0,0,0,0,0,0,0.0125,0.0125,0.012,0.0117,0.0116,0.0101,0.0106,0.0103,0.0097,0.0093,0.0092,0.0089,0.0088,0.0088,0.0078,0.0062,0.0088,0.0088,0.0041,0.0039,0.0037,0.0025,0,0,0,0,0,0,0.0126,0.0126,0.013,0.0118,0.0116,0.0111,0.0106,0.0103,0.0095,0.0093,0.0089,0.0089,0.0088,0.0077,0.0078,0.0062,0.0088,0.0043,0.004,0.0038,0.0027,0.0023,0.0019,0,0,0,0,0,0.0126,0.0135,0.0131,0.013,0.0123,0.0111,0.0109,0.0098,0.0095,0.0092,0.0081,0.0089,0.0061,0.0077,0.0078,0.0062,0.0044,0.0041,0.0038,0.0029,0.0024,0.0019,0,0,0,0,0,0,0.0144,0.0134,0.0129,0.0136,0.0123,0.0109,0.0107,0.0098,0.0088,0.0088,0.0082,0.0081,0.0061,0.0061,0.0079,0.0035,0.005,0.0047,0.0042,0.0038,0.0034,0.0038,0.0088,0,0,0,0,0,0.0149,0.0151,0.0136,0.0142,0.0136,0.012,0.0115,0.0107,0.0096,0.0091,0.0083,0.0069,0.0048,0.0045,0.0031,0.002,0.0051,0.0004,-0.0,-0.0003,-0.0002,0.0011,0.0009,0.0026,0.0026,0.0026,0,0,0.0157,0.0152,0.0153,0.0145,0.0135,0.0128,0.0117,0.011,0.0099,0.0094,0.0078,0.0059,0.004,0.0017,0.0008,0.0018,0.0016,-0.0007,-0.001,-0.0007,0.0007,0.0006,0.0005,0.0024,0.0024,0.0025,0,0,0.0172,0.0169,0.0174,0.0163,0.0149,0.0136,0.0133,0.0115,0.0101,0.0086,0.0065,0.003,0.0022,-0.0012,-0.0026,-0.0061,-0.0009,-0.0061,-0.0071,-0.0059,-0.0059,-0.0059,0.0021,0.0028,-0.006,-0.006,-0.006,0,0.0182,0.0189,0.0172,0.0172,0.0165,0.014,0.014,0.0119,0.0097,0.009,0.0081,0.0036,0.0001,-0.0032,-0.0065,-0.007,-0.002,-0.0047,-0.0061,-0.0061,-0.0061,0.0021,0.0029,-0.0061,-0.0061,-0.0061,-0.0061,0,0.0197,0.0201,0.0202,0.0191,0.018,0.0177,0.0146,0.0131,0.0112,0.0095,0.0063,0.0015,-0.0004,-0.0041,-0.007,-0.0097,-0.0044,-0.0066,-0.004,-0.0063,0.0025,0.0033,-0.0062,-0.0062,-0.0062,-0.0062,0,0,0.0227,0.0216,0.0216,0.0224,0.0192,0.0193,0.0163,0.0141,0.0158,0.0099,0.0125,0.0007,-0.0004,-0.0025,-0.0063,-0.0088,-0.0065,-0.008,-0.0079,0.0016,0.0033,0.0072,0.0086,-0.0074,-0.0074,-0.0074,0.0112,0,0.0245,0.0259,0.0237,0.0248,0.0256,0.022,0.0211,0.0186,0.0174,0.0195,0.0115,0.0131,0.0002,0.0025,-0.0041,-0.0037,-0.0049,-0.0109,0.0026,0.0031,0.0079,0.0092,0.0032,0.0191,0.012,0.0122,0.0123,0,0.027,0.0279,0.0294,0.0303,0.0304,0.0304,0.0312,0.0307,0.0301,0.0303,0.027,0.0255,0.0202,0.012,0.0073,0.0056,0.0029,0.0013,0.002,0.0062,0.0083,0.019,0.0209,-0.0058,0.0136,0.0135,0.0134,0,0.0322,0.0322,0.0341,0.034,0.0339,0.0345,0.0351,0.0345,0.0398,0.0411,0.05,0.0395,0.0461,0.034,0.0272,0.0196,0.028,0.0183,0.0193,0.02,0.0175,0.0178,-0.0041,0.0148,0.0148,0.0147,0.0147,0,0.0365,0.0388,0.0376,0.0395,0.0457,0.0419,0.0503,0.0498,0.056,0.0688,0.0587,0.0712,0.0524,0.0547,0.0384,0.0357,0.0375,0.021,0.0238,0.0173,0.0174,-0.0038,-0.0168,0.0154,0.0153,0.0152,0.015,0,0.045,0.0423,0.0473,0.0478,0.0494,0.0554,0.065,0.0728,0.0765,0.0951,0.0992,0.1021,0.1043,0.0878,0.0783,0.0597,0.0385,0.049,0.0462,0.0479,0.016,0.0036,-0.0038,-0.0137,0.0502,0.0504,0.0506,0,0.0508,0.0533,0.0572,0.0632,0.065,0.0732,0.0812,0.0842,0.0962,0.1165,0.1299,0.1389,0.1469,0.1352,0.1038,0.0817,0.0545,0.062,0.0394,0.0147,0.0029,-0.0054,-0.0141,0.0388,0.0388,0.0389,0.0389,0,0.0645,0.0647,0.0696,0.0813,0.09,0.1008,0.1131,0.1253,0.1349,0.1514,0.1759,0.1843,0.1746,0.1512,0.121,0.099,0.041,0.0622,0.0344,-0.0097,-0.018,-0.026,0.0311,0.0393,0.0392,0.0392,0.0392,0.0392,0.0774,0.0847,0.0908,0.1023,0.113,0.1281,0.1392,0.1544,0.1756,0.1998,0.2081,0.2224,0.1843,0.1405,0.1108,0.046,0.0481,0.0186,0.0067,0.0017,-0.0152,0.0465,0.0573,0.0574,0.0575,0.0575,0.0576,0,0.0933,0.0997,0.1119,0.1249,0.1384,0.14,0.1606,0.1722,0.1971,0.2191,0.237,0.2251,0.175,0.1205,0.0385,-0.0053,-0.0256,-0.0309,-0.053,-0.0586,-0.0064,-0.0154,-0.0174,-0.0174,-0.0174,-0.0174,-0.0173,-0.0173,0.1029,0.1159,0.1202,0.1443,0.1536,0.1714,0.1824,0.2,0.2165,0.2391,0.2462,0.2503,0.2029,0.056,-0.0459,-0.067,-0.1025,-0.1036,-0.1165,-0.0943,-0.091,-0.0879,-0.1003,-0.1201,-0.1202,-0.1694,-0.17,-0.1704]}],[{"header":{"parameterUnit":"m.s-1","parameterCategory":2,"la1":30.2991,"la2":30.254,"lo1":-89.0895,"lo2":-89.0444,"dy":0.0017,"dx":0.0017,"nx":28,"ny":28,"refTime":"2025-09-06T03:00:00:Z","depth":"2","parameterNumber":2,"parameterNumberName":"U-component_of_CURRENTS"},"data":[0,0,0,0,0,0,0,0,0,0,0,0,0,0,0,0,0,0,0,0,0,0,0,0,0,0,0,0,0,0,0,0,0,0,0,0,0,0,0,0,0,0,0,0,0,0,0,0,0,0,0,0,0,0,0,0,0,0,0.172,0.172,0,0.1738,0.1738,0.1738,0.1716,0.1716,0.1715,0.1714,0.1694,0.1694,0.1694,0,0,0,0,0,0,0,0,0,0,0,0,0,0.1668,0.1669,0.172,0.172,0.1721,0.1738,0.1738,0.1738,0.1716,0.1715,0.1715,0.1714,0.1694,0.1694,0.1694,0,0,0,0,0,0,0,0,0,0,0,0,0,0.1687,0.1669,0.172,0.1713,0.1713,0.1738,0.1738,0.1738,0.1716,0.1715,0.1715,0.1714,0.1694,0.1694,0.1694,0.1712,0,0,0.1694,0.1694,0,0,0,0,0,0,0,0,0.1686,0.1688,0.1714,0.1714,0.1714,0.1726,0.1712,0.1728,0.1717,0.1713,0.1714,0.1713,0.1703,0.1702,0.1705,0.1711,0.171,0.1694,0.1694,0.1694,0.1694,0,0,0,0,0,0,0,0.1684,0.1687,0.1725,0.1715,0.1714,0.171,0.1712,0.1715,0.171,0.1713,0.1712,0.1718,0.1702,0.1705,0.1704,0.171,0.1694,0.1694,0.1694,0.1694,0.1744,0.1746,0,0,0,0,0,0,0.1688,0.1686,0.1724,0.1726,0.1699,0.1712,0.1714,0.1721,0.1711,0.171,0.1719,0.1717,0.1705,0.1704,0.1703,0.1746,0.1694,0.1694,0.1694,0.1743,0.1745,0.1746,0,0,0,0,0,0,0.1686,0.1691,0.1724,0.1708,0.1712,0.1714,0.1723,0.1722,0.1725,0.1716,0.1713,0.1722,0.1705,0.1703,0.1714,0.1744,0.1694,0.1694,0.1742,0.1744,0.1745,0.1817,0,0,0,0,0,0,0.1685,0.169,0.1695,0.1708,0.1713,0.1746,0.1724,0.1723,0.1731,0.1728,0.1718,0.1716,0.1704,0.1714,0.1714,0.1743,0.1694,0.174,0.1742,0.1745,0.1813,0.1821,0.1828,0,0,0,0,0,0.1683,0.1697,0.1695,0.17,0.172,0.1747,0.1749,0.1746,0.1732,0.1742,0.1735,0.1716,0.173,0.1716,0.1715,0.1744,0.1739,0.1742,0.1745,0.1809,0.1819,0.1828,0,0,0,0,0,0,0.1678,0.1697,0.1695,0.1714,0.1732,0.1744,0.1755,0.1751,0.1754,0.1749,0.1732,0.173,0.1751,0.1738,0.1723,0.1766,0.1732,0.1735,0.1781,0.179,0.1798,0.18,0.1694,0,0,0,0,0,0.168,0.1694,0.1713,0.1729,0.174,0.1747,0.1756,0.1757,0.1763,0.1763,0.1758,0.1755,0.1765,0.1768,0.1771,0.1795,0.181,0.1814,0.1822,0.1828,0.183,0.186,0.1871,0.1756,0.1756,0.1756,0,0,0.1679,0.1695,0.17,0.1728,0.1741,0.1768,0.175,0.1772,0.1793,0.1762,0.1784,0.1781,0.1777,0.1805,0.1814,0.1797,0.1881,0.1832,0.1838,0.1836,0.1865,0.1876,0.1886,0.1758,0.1758,0.1757,0,0,0.1694,0.1704,0.1722,0.1744,0.1772,0.1784,0.1792,0.1811,0.1817,0.1839,0.1827,0.1844,0.1848,0.1863,0.1867,0.192,0.1919,0.1917,0.1959,0.199,0.1999,0.2008,0.2094,0.211,0.1922,0.1922,0.1922,0,0.1691,0.172,0.1733,0.1763,0.1785,0.1794,0.1824,0.1841,0.1858,0.1872,0.1852,0.1882,0.188,0.1925,0.1943,0.1939,0.1966,0.1925,0.2,0.2008,0.2016,0.2102,0.2118,0.1926,0.1925,0.1925,0.1925,0,0.1723,0.1749,0.1767,0.1807,0.1833,0.1863,0.1892,0.1916,0.192,0.1932,0.1968,0.1969,0.1987,0.1994,0.1983,0.2041,0.2052,0.2007,0.1977,0.2032,0.2119,0.2135,0.1931,0.193,0.1929,0.1928,0,0,0.1709,0.1774,0.178,0.1807,0.1859,0.1884,0.1933,0.1978,0.201,0.2023,0.2065,0.2085,0.2081,0.2087,0.2083,0.2106,0.2204,0.208,0.2079,0.2168,0.2316,0.2294,0.2309,0.2163,0.2165,0.2166,0.2376,0,0.173,0.1787,0.1818,0.1876,0.191,0.1946,0.199,0.2031,0.206,0.2105,0.2119,0.2153,0.2119,0.2136,0.2157,0.219,0.2239,0.2154,0.2246,0.2251,0.2225,0.2323,0.2103,0.2266,0.239,0.2393,0.2395,0,0.1749,0.1788,0.1843,0.1914,0.1932,0.1967,0.2041,0.2083,0.215,0.2172,0.221,0.2223,0.2291,0.2231,0.2332,0.2278,0.2306,0.2323,0.233,0.2287,0.2255,0.2221,0.229,0.2421,0.2418,0.2417,0.2415,0,0.1731,0.1807,0.1849,0.1874,0.1953,0.1985,0.2027,0.2097,0.2156,0.222,0.2282,0.2324,0.2394,0.2403,0.2472,0.2399,0.2588,0.2491,0.251,0.2512,0.2332,0.2313,0.2556,0.2556,0.2555,0.2555,0.2554,0,0.1741,0.1776,0.1842,0.1866,0.1922,0.1977,0.2047,0.2093,0.2192,0.2269,0.2316,0.2404,0.2435,0.2548,0.2539,0.2619,0.2658,0.2552,0.2561,0.2357,0.2339,0.245,0.2435,0.2563,0.2561,0.2559,0.2558,0,0.1715,0.1759,0.1811,0.1888,0.1914,0.195,0.2068,0.2123,0.2222,0.2334,0.237,0.2525,0.2661,0.2731,0.281,0.2749,0.2788,0.2803,0.2601,0.258,0.2673,0.2659,0.2818,0.2818,0.2819,0.282,0.282,0,0.1706,0.1729,0.181,0.1843,0.1879,0.1948,0.2,0.211,0.218,0.2399,0.2456,0.2666,0.2754,0.2926,0.2881,0.2912,0.2925,0.2712,0.2497,0.2706,0.2699,0.2684,0.267,0.2323,0.2319,0.2316,0.2314,0,0.1684,0.171,0.1751,0.1816,0.1869,0.1941,0.2025,0.2094,0.2231,0.2354,0.254,0.264,0.2813,0.2755,0.2817,0.2768,0.267,0.2651,0.2943,0.2276,0.2251,0.2241,0.224,0.2288,0.229,0.2292,0.2294,0.2295,0.1655,0.1674,0.1723,0.1782,0.1848,0.1912,0.1943,0.2049,0.2163,0.2272,0.2445,0.2505,0.2564,0.2525,0.2492,0.2463,0.2591,0.2421,0.2425,0.2433,0.2324,0.2299,0.233,0.2332,0.2335,0.2337,0.2339,0,0.1606,0.1638,0.1691,0.1747,0.1786,0.1852,0.1941,0.1941,0.2022,0.2122,0.2213,0.2074,0.2071,0.2168,0.2072,0.2058,0.1967,0.198,0.1839,0.1869,0.1895,0.1751,0.1609,0.1606,0.1604,0.1602,0,0,0.1579,0.1594,0.1623,0.1657,0.171,0.1728,0.176,0.1776,0.1822,0.179,0.1795,0.1899,0.2064,0.1787,0.1776,0.1691,0.1748,0.1619,0.2209,0.2072,0.2094,0.2165,0.1981,0,0,0,0,0]},{"header":{"parameterUnit":"m.s-1","parameterCategory":2,"la1":30.2991,"la2":30.254,"lo1":-89.0895,"lo2":-89.0444,"dy":0.0017,"dx":0.0017,"nx":28,"ny":28,"refTime":"2025-09-06T03:00:00:Z","depth":"2","parameterNumber":3,"parameterNumberName":"V-component_of_CURRENTS"},"data":[0,0,0,0,0,0,0,0,0,0,0,0,0,0,0,0,0,0,0,0,0,0,0,0,0,0,0,0,0,0,0,0,0,0,0,0,0,0,0,0,0,0,0,0,0,0,0,0,0,0,0,0,0,0,0,0,0,0,-0.0419,-0.0419,0,-0.0484,-0.0485,-0.0485,-0.0523,-0.0523,-0.0523,-0.0523,-0.0582,-0.0583,-0.0585,0,0,0,0,0,0,0,0,0,0,0,0,0,-0.0397,-0.0397,-0.0418,-0.0419,-0.042,-0.0484,-0.0485,-0.0486,-0.0523,-0.0523,-0.0523,-0.0523,-0.0581,-0.0583,-0.0585,0,0,0,0,0,0,0,0,0,0,0,0,0,-0.043,-0.0397,-0.0418,-0.0445,-0.0448,-0.0483,-0.0485,-0.0486,-0.0523,-0.0523,-0.0523,-0.0523,-0.0581,-0.0583,-0.0585,-0.0601,0,0,-0.0593,-0.0594,0,0,0,0,0,0,0,0,-0.0428,-0.0431,-0.044,-0.0443,-0.0446,-0.0494,-0.0499,-0.0524,-0.0523,-0.0496,-0.0523,-0.0523,-0.0551,-0.0556,-0.057,-0.0604,-0.0606,-0.0593,-0.0594,-0.0595,-0.0596,0,0,0,0,0,0,0,-0.0425,-0.0429,-0.0446,-0.0441,-0.0445,-0.0477,-0.0482,-0.0504,-0.0524,-0.0498,-0.0501,-0.0505,-0.0553,-0.0568,-0.0572,-0.0607,-0.0593,-0.0595,-0.0596,-0.0597,-0.0642,-0.0642,0,0,0,0,0,0,-0.041,-0.0426,-0.0444,-0.0448,-0.0435,-0.0477,-0.0482,-0.048,-0.0524,-0.053,-0.0505,-0.0507,-0.0564,-0.0569,-0.0574,-0.0579,-0.0595,-0.0598,-0.0599,-0.0642,-0.0642,-0.0642,0,0,0,0,0,0,-0.0409,-0.0411,-0.0441,-0.0438,-0.0444,-0.0477,-0.0475,-0.0481,-0.0491,-0.0529,-0.0535,-0.0507,-0.0564,-0.0571,-0.0591,-0.0582,-0.0599,-0.0601,-0.0642,-0.0642,-0.0642,-0.0598,0,0,0,0,0,0,-0.0408,-0.041,-0.0404,-0.0436,-0.0443,-0.0451,-0.0475,-0.0482,-0.0493,-0.0496,-0.0533,-0.0539,-0.0565,-0.0587,-0.0593,-0.0585,-0.0603,-0.0643,-0.0642,-0.0642,-0.06,-0.0596,-0.0593,0,0,0,0,0,-0.0407,-0.0394,-0.0403,-0.0406,-0.0433,-0.0451,-0.0457,-0.0483,-0.0493,-0.0493,-0.0522,-0.0537,-0.0588,-0.0589,-0.0596,-0.0589,-0.0643,-0.0642,-0.0642,-0.0601,-0.0597,-0.0593,0,0,0,0,0,0,-0.0381,-0.0397,-0.0408,-0.0401,-0.042,-0.0456,-0.0457,-0.0476,-0.05,-0.05,-0.0539,-0.0546,-0.056,-0.058,-0.058,-0.06,-0.0616,-0.0617,-0.0583,-0.0579,-0.0576,-0.0564,-0.0605,0,0,0,0,0,-0.0372,-0.0366,-0.0391,-0.0385,-0.039,-0.0423,-0.0433,-0.045,-0.0475,-0.0486,-0.0513,-0.0541,-0.0565,-0.0576,-0.0599,-0.0612,-0.0635,-0.0611,-0.0607,-0.0604,-0.06,-0.0644,-0.0644,-0.064,-0.064,-0.064,0,0,-0.036,-0.0368,-0.0365,-0.0379,-0.0395,-0.0396,-0.0429,-0.0436,-0.0439,-0.0488,-0.0498,-0.053,-0.0565,-0.0581,-0.0588,-0.0595,-0.0614,-0.0603,-0.0601,-0.0598,-0.0643,-0.0644,-0.0644,-0.0639,-0.0639,-0.064,0,0,-0.033,-0.0338,-0.0323,-0.0334,-0.0351,-0.0372,-0.0369,-0.0399,-0.0414,-0.0431,-0.0466,-0.0494,-0.0527,-0.0555,-0.0573,-0.0565,-0.0596,-0.0569,-0.0543,-0.0586,-0.0587,-0.0588,-0.0601,-0.0604,-0.0567,-0.0567,-0.0567,0,-0.0314,-0.03,-0.0323,-0.0313,-0.0315,-0.0354,-0.0341,-0.0363,-0.0397,-0.0409,-0.0423,-0.0486,-0.0515,-0.0542,-0.0541,-0.0557,-0.0579,-0.0555,-0.0582,-0.0583,-0.0585,-0.0599,-0.0603,-0.0564,-0.0565,-0.0565,-0.0565,0,-0.0276,-0.0266,-0.0256,-0.0255,-0.0263,-0.0257,-0.0286,-0.0297,-0.0321,-0.0349,-0.0381,-0.0433,-0.0471,-0.0484,-0.0511,-0.0537,-0.0546,-0.0573,-0.0591,-0.0583,-0.0598,-0.0602,-0.0561,-0.0562,-0.0563,-0.0563,0,0,-0.0231,-0.0229,-0.0224,-0.0214,-0.023,-0.023,-0.0234,-0.0252,-0.0252,-0.03,-0.0309,-0.0368,-0.0407,-0.043,-0.0473,-0.0511,-0.0539,-0.0543,-0.0546,-0.0554,-0.0615,-0.0612,-0.0617,-0.0577,-0.0578,-0.0579,-0.0614,0,-0.0192,-0.0156,-0.017,-0.0141,-0.0125,-0.0158,-0.0158,-0.0183,-0.0212,-0.023,-0.0298,-0.0322,-0.0384,-0.0398,-0.0451,-0.0513,-0.0552,-0.0526,-0.0624,-0.0626,-0.0624,-0.0623,-0.0577,-0.0604,-0.0618,-0.0619,-0.062,0,-0.0147,-0.0129,-0.009,-0.008,-0.0076,-0.0069,-0.0073,-0.008,-0.0124,-0.0148,-0.0201,-0.025,-0.0311,-0.0362,-0.048,-0.0462,-0.0535,-0.0588,-0.0592,-0.0609,-0.0633,-0.0619,-0.0612,-0.0628,-0.0627,-0.0626,-0.0626,0,-0.0099,-0.0072,-0.0038,-0.0033,-0.0031,-0.0022,-0.0025,-0.0055,-0.0045,-0.0095,-0.0086,-0.019,-0.0207,-0.0336,-0.0451,-0.0468,-0.0571,-0.061,-0.0676,-0.0676,-0.0665,-0.0662,-0.0698,-0.0698,-0.0698,-0.0698,-0.0698,0,-0.0052,-0.0025,-0.0011,0.0007,0.0048,0.0028,0.006,0.0038,0.0031,0.0058,-0.0039,-0.0026,-0.0201,-0.028,-0.0421,-0.0551,-0.0555,-0.0667,-0.069,-0.0646,-0.0641,-0.0689,-0.0688,-0.0699,-0.0699,-0.0699,-0.0699,0,-0.0013,-0.0003,0.0038,0.0059,0.0071,0.0097,0.013,0.0153,0.0137,0.0175,0.0171,0.0109,0.0011,-0.0164,-0.034,-0.0477,-0.0625,-0.0673,-0.0592,-0.0606,-0.0708,-0.0703,-0.0753,-0.0753,-0.0753,-0.0753,-0.0754,0,0.0005,0.0033,0.0082,0.0117,0.0129,0.0169,0.0202,0.0201,0.0239,0.0268,0.0302,0.024,0.0204,-0.0049,-0.0295,-0.0536,-0.0588,-0.0653,-0.0691,-0.0698,-0.0716,-0.0711,-0.0707,-0.0649,-0.0649,-0.0648,-0.0648,0,0.004,0.006,0.0095,0.0174,0.0221,0.0283,0.0336,0.0391,0.0407,0.0463,0.0531,0.0513,0.0286,0.0074,-0.0257,-0.0427,-0.0619,-0.0649,-0.0684,-0.0643,-0.0605,-0.0621,-0.0619,-0.0643,-0.0643,-0.0644,-0.0644,-0.0644,0.0064,0.0102,0.016,0.0234,0.0301,0.0398,0.0472,0.055,0.065,0.0736,0.0695,0.0685,0.041,0.0019,-0.0252,-0.0538,-0.0564,-0.0676,-0.0677,-0.0678,-0.066,-0.0625,-0.0661,-0.0662,-0.0662,-0.0663,-0.0663,0,0.0098,0.0148,0.022,0.0317,0.0409,0.0439,0.0568,0.0657,0.0812,0.0858,0.0902,0.0674,0.0423,0.0123,-0.0283,-0.0555,-0.058,-0.0633,-0.0604,-0.0608,-0.0611,-0.0589,-0.0572,-0.0573,-0.0573,-0.0573,0,0,0.0118,0.0191,0.0235,0.0391,0.0478,0.0626,0.072,0.0863,0.0942,0.1008,0.1001,0.0884,0.0524,0.0251,-0.011,-0.0323,-0.0403,-0.0371,-0.042,-0.0348,-0.0347,-0.062,-0.0588,0,0,0,0,0]}],[{"header":{"parameterUnit":"m.s-1","parameterCategory":2,"la1":30.2991,"la2":30.254,"lo1":-89.0895,"lo2":-89.0444,"dy":0.0017,"dx":0.0017,"nx":28,"ny":28,"refTime":"2025-09-06T03:00:00:Z","depth":"4","parameterNumber":2,"parameterNumberName":"U-component_of_CURRENTS"},"data":[0,0,0,0,0,0,0,0,0,0,0,0,0,0,0,0,0,0,0,0,0,0,0,0,0,0,0,0,0,0,0,0,0,0,0,0,0,0,0,0,0,0,0,0,0,0,0,0,0,0,0,0,0,0,0,0,0,0,0.0938,0.0939,0,0.0977,0.0978,0.0978,0.1012,0.1013,0.1013,0.1014,0.1058,0.1058,0.1059,0,0,0,0,0,0,0,0,0,0,0,0,0,0.0882,0.0882,0.0938,0.0939,0.094,0.0977,0.0978,0.0978,0.1012,0.1013,0.1014,0.1014,0.1057,0.1058,0.1059,0,0,0,0,0,0,0,0,0,0,0,0,0,0.091,0.0883,0.0938,0.0962,0.0965,0.0977,0.0978,0.0978,0.1012,0.1013,0.1014,0.1014,0.1057,0.1058,0.1059,0.1048,0,0,0.1062,0.1062,0,0,0,0,0,0,0,0,0.0909,0.0912,0.0958,0.0961,0.0964,0.0992,0.0974,0.1002,0.1012,0.0993,0.1014,0.1015,0.1037,0.1039,0.1042,0.105,0.1052,0.1062,0.1063,0.1063,0.1063,0,0,0,0,0,0,0,0.0907,0.0911,0.0952,0.0959,0.0962,0.0967,0.0972,0.0979,0.1008,0.0994,0.0997,0.1004,0.1038,0.1041,0.1044,0.1053,0.1062,0.1063,0.1063,0.1064,0.1139,0.114,0,0,0,0,0,0,0.0905,0.0909,0.0951,0.0953,0.094,0.0968,0.0973,0.0981,0.1008,0.1014,0.1003,0.1005,0.1039,0.1042,0.1045,0.1114,0.1063,0.1064,0.1064,0.1138,0.1139,0.1141,0,0,0,0,0,0,0.0904,0.0908,0.0949,0.0933,0.0939,0.0968,0.0976,0.0981,0.101,0.1015,0.1021,0.103,0.104,0.1044,0.108,0.1113,0.1064,0.1065,0.1136,0.1138,0.114,0.1201,0,0,0,0,0,0,0.0902,0.0908,0.0922,0.0933,0.094,0.0975,0.0976,0.0982,0.1012,0.1016,0.104,0.1043,0.1041,0.1079,0.1081,0.1114,0.1066,0.1134,0.1137,0.114,0.1197,0.1205,0.1211,0,0,0,0,0,0.09,0.0912,0.0922,0.0928,0.0955,0.0976,0.0981,0.1002,0.1013,0.1031,0.1051,0.1044,0.1097,0.1081,0.1083,0.1117,0.1133,0.1136,0.1139,0.1194,0.1203,0.1211,0,0,0,0,0,0,0.0891,0.0917,0.0928,0.0948,0.0971,0.0983,0.1003,0.1016,0.1045,0.1055,0.1059,0.1065,0.1107,0.1103,0.1085,0.1146,0.1115,0.1119,0.1155,0.1164,0.1171,0.1147,0.1067,0,0,0,0,0,0.0896,0.0916,0.0938,0.0956,0.0971,0.0992,0.1007,0.1022,0.1044,0.1058,0.1075,0.1095,0.1117,0.1135,0.1146,0.118,0.1185,0.1204,0.1211,0.1217,0.1199,0.1265,0.1277,0.1151,0.1151,0.1151,0,0,0.0898,0.0915,0.0928,0.0957,0.0977,0.0998,0.1004,0.1035,0.1057,0.1057,0.11,0.1118,0.113,0.117,0.1189,0.1176,0.1256,0.1221,0.1226,0.1205,0.127,0.1282,0.1293,0.1154,0.1153,0.1153,0,0,0.0906,0.093,0.095,0.0971,0.1006,0.1018,0.1033,0.1062,0.1087,0.1125,0.1135,0.1175,0.1203,0.1224,0.1235,0.1288,0.1289,0.1299,0.1321,0.1387,0.1397,0.1407,0.1429,0.144,0.1307,0.1307,0.1308,0,0.0907,0.0934,0.096,0.0981,0.1001,0.103,0.1052,0.1078,0.1116,0.1142,0.1148,0.1216,0.1227,0.1281,0.1294,0.1305,0.1327,0.1289,0.1396,0.1406,0.1414,0.1435,0.1447,0.1311,0.131,0.131,0.131,0,0.0925,0.0953,0.0968,0.1005,0.1029,0.1055,0.1089,0.1115,0.1148,0.1183,0.1251,0.1277,0.1323,0.1336,0.1325,0.1396,0.1386,0.1397,0.1374,0.1431,0.1449,0.146,0.1315,0.1314,0.1313,0.1312,0,0,0.0902,0.0968,0.0974,0.0997,0.1045,0.1061,0.1099,0.1147,0.1187,0.1239,0.1302,0.1343,0.1381,0.1394,0.1412,0.1449,0.1526,0.1444,0.1446,0.1464,0.165,0.1532,0.1532,0.1569,0.1571,0.1573,0.1638,0,0.0909,0.0953,0.0985,0.1025,0.1049,0.1082,0.1123,0.1172,0.122,0.1288,0.1344,0.1417,0.1404,0.1445,0.1485,0.1514,0.1557,0.1505,0.1592,0.1593,0.1481,0.1541,0.158,0.1646,0.1648,0.165,0.1651,0,0.0906,0.094,0.0984,0.1044,0.1061,0.1092,0.1153,0.1197,0.1291,0.1324,0.1403,0.1474,0.1544,0.1532,0.1621,0.1593,0.1621,0.1634,0.1638,0.1506,0.1495,0.1577,0.1671,0.1669,0.1668,0.1666,0.1665,0,0.0867,0.0931,0.0969,0.0988,0.1063,0.1091,0.1138,0.1221,0.1271,0.1369,0.143,0.1527,0.1606,0.1651,0.1686,0.1677,0.1763,0.177,0.1688,0.168,0.1739,0.1728,0.184,0.184,0.184,0.184,0.184,0,0.0845,0.0874,0.0961,0.0977,0.1031,0.1094,0.116,0.12,0.13,0.1365,0.1476,0.1541,0.1646,0.172,0.172,0.1721,0.1811,0.1684,0.1694,0.1762,0.1753,0.1746,0.1734,0.1842,0.1842,0.1841,0.1841,0,0.0785,0.0848,0.0889,0.0978,0.1014,0.1053,0.1161,0.1201,0.1306,0.1389,0.1437,0.1589,0.1667,0.1739,0.1811,0.1771,0.1773,0.1755,0.1797,0.1809,0.1637,0.1628,0.1681,0.1677,0.1674,0.1672,0.167,0,0.0761,0.0778,0.0871,0.0903,0.0947,0.1021,0.1067,0.1173,0.1216,0.1391,0.1426,0.1584,0.1657,0.1677,0.1733,0.1741,0.1725,0.1721,0.1686,0.1619,0.1625,0.162,0.1615,0.1665,0.1664,0.1664,0.1663,0,0.0702,0.074,0.077,0.0835,0.0889,0.0942,0.1025,0.1056,0.1176,0.1293,0.1391,0.1471,0.1562,0.1615,0.1637,0.1633,0.1715,0.169,0.1696,0.1664,0.1601,0.1608,0.1606,0.1652,0.1654,0.1655,0.1656,0,0.0654,0.0654,0.0701,0.0751,0.0816,0.0856,0.0908,0.0981,0.1055,0.1251,0.1268,0.1415,0.1535,0.1559,0.1562,0.1561,0.1551,0.151,0.1525,0.1537,0.1458,0.1355,0.1339,0,0,0,0,0,0.0606,0.0595,0.0619,0.0662,0.0719,0.077,0.0875,0.0931,0.1061,0.1094,0.1184,0.1252,0.1325,0.1407,0.1379,0.1486,0.1538,0.1447,0.1492,0.1595,0.1607,0.1525,0,0,0,0,0,0,0.0571,0.0583,0.0582,0.0584,0.0602,0.0657,0.0729,0.0815,0.0857,0.1,0.1055,0.1165,0.1257,0.1314,0.1348,0.1366,0.1369,0.153,0.1526,0.1589,0.16,0.1609,0.1529,0,0,0,0,0]},{"header":{"parameterUnit":"m.s-1","parameterCategory":2,"la1":30.2991,"la2":30.254,"lo1":-89.0895,"lo2":-89.0444,"dy":0.0017,"dx":0.0017,"nx":28,"ny":28,"refTime":"2025-09-06T03:00:00:Z","depth":"4","parameterNumber":3,"parameterNumberName":"V-component_of_CURRENTS"},"data":[0,0,0,0,0,0,0,0,0,0,0,0,0,0,0,0,0,0,0,0,0,0,0,0,0,0,0,0,0,0,0,0,0,0,0,0,0,0,0,0,0,0,0,0,0,0,0,0,0,0,0,0,0,0,0,0,0,0,-0.0031,-0.0031,0,-0.0055,-0.0055,-0.0056,-0.0082,-0.0082,-0.0083,-0.0083,-0.0139,-0.014,-0.0142,0,0,0,0,0,0,0,0,0,0,0,0,0,-0.0027,-0.0026,-0.0031,-0.0031,-0.0032,-0.0055,-0.0055,-0.0056,-0.0082,-0.0082,-0.0083,-0.0083,-0.0139,-0.014,-0.0142,0,0,0,0,0,0,0,0,0,0,0,0,0,-0.0037,-0.0026,-0.0031,-0.0048,-0.0049,-0.0055,-0.0055,-0.0056,-0.0082,-0.0082,-0.0083,-0.0084,-0.0138,-0.014,-0.0142,-0.0141,0,0,-0.0147,-0.0148,0,0,0,0,0,0,0,0,-0.0037,-0.0038,-0.0045,-0.0046,-0.0048,-0.0066,-0.0074,-0.0086,-0.0082,-0.007,-0.0083,-0.0084,-0.0117,-0.0121,-0.0124,-0.0144,-0.0146,-0.0147,-0.0148,-0.0149,-0.015,0,0,0,0,0,0,0,-0.0036,-0.0037,-0.0041,-0.0045,-0.0047,-0.006,-0.0062,-0.0077,-0.0091,-0.0071,-0.0073,-0.0075,-0.0119,-0.0122,-0.0125,-0.0147,-0.0147,-0.0149,-0.015,-0.015,-0.0152,-0.0151,0,0,0,0,0,0,-0.0031,-0.0036,-0.004,-0.0041,-0.0044,-0.006,-0.0062,-0.006,-0.009,-0.0095,-0.0074,-0.0076,-0.0119,-0.0123,-0.0127,-0.0111,-0.0149,-0.0151,-0.0152,-0.0153,-0.0152,-0.0151,0,0,0,0,0,0,-0.0031,-0.0031,-0.0039,-0.004,-0.0041,-0.0059,-0.0057,-0.006,-0.0069,-0.0092,-0.0098,-0.0081,-0.0119,-0.0125,-0.0134,-0.0114,-0.0151,-0.0153,-0.0154,-0.0153,-0.0151,-0.009,0,0,0,0,0,0,-0.0031,-0.0031,-0.0029,-0.0039,-0.0041,-0.0041,-0.0056,-0.006,-0.0069,-0.0072,-0.0099,-0.0105,-0.012,-0.0131,-0.0135,-0.0117,-0.0154,-0.0155,-0.0153,-0.0152,-0.0093,-0.0086,-0.0081,0,0,0,0,0,-0.003,-0.0023,-0.0029,-0.003,-0.0038,-0.0041,-0.0043,-0.0058,-0.0069,-0.0069,-0.0083,-0.0104,-0.0122,-0.0132,-0.0137,-0.0119,-0.0156,-0.0154,-0.0152,-0.0096,-0.0088,-0.0081,0,0,0,0,0,0,-0.0021,-0.0025,-0.0032,-0.0027,-0.0034,-0.0046,-0.0047,-0.0058,-0.0069,-0.0073,-0.0096,-0.0102,-0.0102,-0.0119,-0.0129,-0.0113,-0.0141,-0.014,-0.0096,-0.0089,-0.0083,-0.0063,-0.0156,0,0,0,0,0,-0.0017,-0.0013,-0.0022,-0.0018,-0.0021,-0.0035,-0.004,-0.0048,-0.0059,-0.0064,-0.0079,-0.0091,-0.0096,-0.01,-0.0111,-0.0105,-0.0145,-0.0095,-0.0089,-0.0083,-0.007,-0.0105,-0.0101,-0.0143,-0.0143,-0.0143,0,0,-0.0013,-0.0015,-0.0013,-0.0016,-0.0024,-0.0014,-0.0039,-0.0043,-0.0029,-0.0069,-0.0057,-0.0076,-0.0091,-0.0081,-0.0081,-0.0093,-0.0098,-0.0081,-0.0076,-0.0065,-0.0103,-0.0099,-0.0095,-0.0142,-0.0142,-0.0142,0,0,0.0002,-0.0004,0.0005,0.0005,-0.0002,-0.0004,-0.0005,-0.0014,-0.0014,-0.001,-0.0027,-0.0028,-0.0045,-0.0038,-0.004,-0.0005,-0.0068,-0.0016,0.0035,0.0001,0.0004,0.0006,-0.0068,-0.0073,-0.0008,-0.0008,-0.0008,0,0.0009,0.002,0.0007,0.0018,0.0026,0.0004,0.0021,0.0023,0.0014,0.0022,0.0,-0.0005,-0.0016,0.0007,0.0027,0.001,-0.004,0.0008,0.0009,0.001,0.0011,-0.0065,-0.0071,-0.0005,-0.0005,-0.0005,-0.0006,0,0.0031,0.0042,0.0048,0.0061,0.0068,0.0077,0.0081,0.0089,0.0083,0.0081,0.0089,0.0071,0.0066,0.0069,0.0062,0.0076,0.0024,0.0015,-0.0011,0.0019,-0.0064,-0.0071,0.0,-0.0001,-0.0002,-0.0003,0,0,0.0044,0.0062,0.0064,0.0081,0.0093,0.0102,0.0135,0.0156,0.0169,0.0162,0.017,0.0187,0.0159,0.0157,0.0138,0.0128,0.0092,0.0083,0.008,0.0007,-0.0025,-0.0037,-0.0048,0.0073,0.0073,0.0073,-0.0097,0,0.0066,0.0099,0.0105,0.0145,0.0164,0.0171,0.0203,0.022,0.0216,0.0216,0.0207,0.0199,0.0195,0.0179,0.0174,0.0105,0.008,0.0137,-0.0041,-0.0046,-0.0062,-0.0052,0.0073,-0.0103,-0.0105,-0.0106,-0.0107,0,0.0085,0.0108,0.0148,0.0192,0.0201,0.0225,0.0264,0.0287,0.0292,0.0284,0.0276,0.0239,0.0226,0.0208,0.0118,0.0145,0.0076,0.0025,0.0016,-0.0015,-0.007,-0.0134,-0.0122,-0.0121,-0.012,-0.0119,-0.0118,0,0.0096,0.0139,0.0175,0.0189,0.0233,0.0261,0.0286,0.0307,0.0327,0.0311,0.0296,0.0263,0.0219,0.0153,0.0053,0.0072,-0.0075,-0.0071,-0.015,-0.0155,-0.0122,-0.0123,-0.0128,-0.0127,-0.0127,-0.0127,-0.0126,0,0.0116,0.0144,0.0183,0.0201,0.0251,0.0276,0.032,0.0335,0.0346,0.0358,0.0321,0.0295,0.0204,0.0109,0.0033,-0.0095,-0.0102,-0.0141,-0.0186,-0.0098,-0.0093,-0.0131,-0.0129,-0.0133,-0.0132,-0.013,-0.0129,0,0.0115,0.014,0.0182,0.0234,0.0254,0.0286,0.0343,0.0368,0.0372,0.0375,0.0365,0.0294,0.0168,0.0058,-0.0086,-0.0135,-0.0246,-0.0288,-0.0223,-0.0263,-0.0305,-0.0298,-0.0394,-0.0396,-0.0397,-0.0398,-0.0399,0,0.0113,0.0135,0.0196,0.0225,0.0248,0.0302,0.0339,0.0376,0.0398,0.0376,0.0368,0.0249,0.0189,-0.0037,-0.0146,-0.0326,-0.0323,-0.0397,-0.0292,-0.0292,-0.0327,-0.0318,-0.0309,-0.0401,-0.0402,-0.0402,-0.0402,0,0.0109,0.013,0.0164,0.0224,0.0267,0.0327,0.0378,0.0398,0.0429,0.0422,0.037,0.0265,0.0111,-0.004,-0.0196,-0.0306,-0.0352,-0.0411,-0.0407,-0.0309,-0.0302,-0.0333,-0.0323,-0.0407,-0.0406,-0.0406,-0.0406,0,0.0099,0.012,0.0167,0.0223,0.0279,0.0339,0.0373,0.0402,0.0428,0.0414,0.0383,0.0242,0.0157,-0.0035,-0.0171,-0.0294,-0.0295,-0.0298,-0.03,-0.0296,-0.0194,-0.0166,-0.0267,0,0,0,0,0,0.009,0.0121,0.0168,0.0235,0.0291,0.0331,0.0394,0.0425,0.0445,0.0419,0.0415,0.0284,0.0087,-0.0008,-0.0131,-0.0197,-0.0328,-0.0343,-0.0335,-0.0432,-0.0427,-0.032,0,0,0,0,0,0,0.0085,0.0124,0.0161,0.0235,0.0282,0.0352,0.0395,0.0414,0.0411,0.0407,0.0301,0.0261,0.006,0.015,-0.0135,-0.0175,-0.0181,-0.0438,-0.044,-0.0435,-0.043,-0.0426,-0.0315,0,0,0,0,0]}]]